| time (UTC) | temp F | wind direction | speed MPH | gust MPH | rain 1hr in | rain 24hr in | rain mn in | humidity % | barometer mb |
| 20260506160020 | 60 | 128 | 5.0 | 11.0 | 0.00 | 0.00 | 0.00 | 70 | 1020.8 |
| 20260506151528 | 59 | 121 | 2.0 | 8.0 | 0.00 | 0.00 | 0.00 | 74 | 1021.0 |
| 20260506150031 | 58 | 129 | 2.0 | 7.0 | 0.00 | 0.00 | 0.00 | 74 | 1020.9 |
| 20260506144523 | 58 | 114 | 2.0 | 7.0 | 0.00 | 0.00 | 0.00 | 75 | 1020.9 |
| 20260506134521 | 57 | 127 | 2.0 | 7.0 | 0.00 | 0.00 | 0.00 | 75 | 1020.2 |
| 20260506133024 | 57 | 121 | 2.0 | 8.0 | 0.00 | 0.00 | 0.00 | 75 | 1020.1 |
| 20260506130014 | 56 | 128 | 0.0 | 7.0 | 0.00 | 0.00 | 0.00 | 76 | 1020.0 |
| 20260506124518 | 56 | 136 | 1.0 | 6.0 | 0.00 | 0.00 | 0.00 | 75 | 1020.0 |
| 20260506123021 | 56 | 116 | 1.0 | 9.0 | 0.00 | 0.00 | 0.00 | 75 | 1019.9 |
| 20260506121522 | 56 | 118 | 3.0 | 8.0 | 0.00 | 0.00 | 0.00 | 75 | 1019.9 |
| 20260506120026 | 57 | 111 | 2.0 | 8.0 | 0.00 | 0.00 | 0.00 | 75 | 1019.8 |
| 20260506113034 | 56 | 117 | 1.0 | 7.0 | 0.00 | 0.00 | 0.00 | 76 | 1019.5 |
| 20260506111521 | 56 | 135 | 1.0 | 8.0 | 0.00 | 0.00 | 0.00 | 76 | 1019.5 |
| 20260506104513 | 57 | 143 | 1.0 | 6.0 | 0.00 | 0.00 | 0.00 | 75 | 1019.3 |
| 20260506103020 | 57 | 115 | 1.0 | 9.0 | 0.00 | 0.00 | 0.00 | 75 | 1019.4 |
| 20260506101503 | 56 | 120 | 1.0 | 3.0 | 0.00 | 0.00 | 0.00 | 76 | 1019.3 |
| 20260506100009 | 56 | 109 | 1.0 | 7.0 | 0.00 | 0.00 | 0.00 | 76 | 1019.3 |
| 20260506094512 | 56 | 126 | 2.0 | 7.0 | 0.00 | 0.00 | 0.00 | 76 | 1019.2 |
| 20260506093013 | 56 | 127 | 1.0 | 6.0 | 0.00 | 0.00 | 0.00 | 76 | 1019.2 |
| 20260506091521 | 56 | 140 | 1.0 | 7.0 | 0.00 | 0.00 | 0.00 | 76 | 1019.2 |
| 20260506090005 | 56 | 145 | 2.0 | 7.0 | 0.00 | 0.00 | 0.00 | 76 | 1019.2 |
| 20260506084507 | 56 | 130 | 2.0 | 9.0 | 0.00 | 0.01 | 0.00 | 76 | 1019.1 |
| 20260506083012 | 56 | 128 | 2.0 | 7.0 | 0.00 | 0.02 | 0.00 | 76 | 1019.1 |
| 20260506081516 | 56 | 143 | 3.0 | 9.0 | 0.00 | 0.03 | 0.00 | 76 | 1019.1 |
| 20260506073008 | 56 | 125 | 1.0 | 3.0 | 0.00 | 0.07 | 0.00 | 78 | 1018.8 |
| 20260506071515 | 56 | 120 | 1.0 | 7.0 | 0.00 | 0.08 | 0.00 | 78 | 1018.6 |
| 20260506061512 | 56 | 113 | 1.0 | 8.0 | 0.00 | 0.12 | 0.08 | 76 | 1018.0 |
| 20260506044522 | 58 | 117 | 2.0 | 9.0 | 0.00 | 0.15 | 0.08 | 72 | 1017.5 |
| 20260506043022 | 58 | 137 | 3.0 | 9.0 | 0.00 | 0.17 | 0.08 | 71 | 1017.5 |
| 20260506041522 | 59 | 141 | 2.0 | 9.0 | 0.00 | 0.19 | 0.08 | 71 | 1017.2 |
| 20260506040028 | 59 | 141 | 4.0 | 11.0 | 0.00 | 0.21 | 0.08 | 70 | 1017.1 |
| 20260506034520 | 60 | 101 | 3.0 | 12.0 | 0.00 | 0.21 | 0.08 | 70 | 1016.9 |
| 20260506033017 | 60 | 96 | 2.0 | 10.0 | 0.00 | 0.21 | 0.08 | 69 | 1016.7 |
| 20260506031519 | 60 | 143 | 3.0 | 8.0 | 0.00 | 0.21 | 0.08 | 68 | 1016.3 |
| 20260506030034 | 61 | 104 | 2.0 | 6.0 | 0.00 | 0.21 | 0.08 | 68 | 1016.3 |
| 20260506024552 | 61 | 104 | 2.0 | 10.0 | 0.00 | 0.21 | 0.08 | 68 | 1016.2 |
| 20260506023027 | 62 | 57 | 3.0 | 8.0 | 0.00 | 0.21 | 0.08 | 67 | 1016.0 |
| 20260506021518 | 62 | 96 | 2.0 | 11.0 | 0.00 | 0.21 | 0.08 | 67 | 1016.0 |
| 20260506020019 | 63 | 88 | 3.0 | 11.0 | 0.00 | 0.21 | 0.08 | 66 | 1015.9 |
| 20260506014524 | 64 | 115 | 1.0 | 7.0 | 0.00 | 0.21 | 0.08 | 66 | 1015.7 |
| 20260506013039 | 64 | 59 | 3.0 | 7.0 | 0.00 | 0.21 | 0.08 | 65 | 1015.6 |
| 20260506011527 | 65 | 90 | 4.0 | 10.0 | 0.00 | 0.21 | 0.08 | 64 | 1015.5 |
| 20260506010023 | 66 | 125 | 1.0 | 9.0 | 0.00 | 0.21 | 0.08 | 62 | 1015.5 |
| 20260506004524 | 67 | 93 | 2.0 | 14.0 | 0.00 | 0.21 | 0.08 | 61 | 1015.4 |
| 20260506003028 | 67 | 125 | 2.0 | 13.0 | 0.00 | 0.21 | 0.08 | 60 | 1015.4 |
| 20260505234506 | 67 | 105 | 3.0 | 9.0 | 0.00 | 0.21 | 0.08 | 61 | 1015.3 |
| 20260505233010 | 65 | 31 | 4.0 | 11.0 | 0.00 | 0.21 | 0.08 | 64 | 1015.6 |
| 20260505231508 | 65 | 122 | 3.0 | 10.0 | 0.00 | 0.21 | 0.08 | 65 | 1015.6 |
| 20260505230020 | 65 | 98 | 2.0 | 9.0 | 0.00 | 0.21 | 0.08 | 65 | 1015.6 |
| 20260505223010 | 65 | 86 | 1.0 | 6.0 | 0.00 | 0.21 | 0.08 | 65 | 1015.6 |
| 20260505221516 | 65 | 136 | 2.0 | 6.0 | 0.00 | 0.21 | 0.08 | 64 | 1015.7 |
| 20260505220012 | 65 | 110 | 2.0 | 5.0 | 0.00 | 0.21 | 0.08 | 64 | 1015.7 |
| 20260505213011 | 65 | 134 | 3.0 | 8.0 | 0.00 | 0.21 | 0.08 | 65 | 1015.8 |
| 20260505211513 | 64 | 145 | 3.0 | 8.0 | 0.00 | 0.21 | 0.08 | 65 | 1015.8 |
| 20260505210012 | 64 | 128 | 3.0 | 8.0 | 0.00 | 0.21 | 0.08 | 67 | 1015.9 |
| 20260505204517 | 64 | 136 | 1.0 | 11.0 | 0.00 | 0.21 | 0.08 | 65 | 1015.9 |
| 20260505203013 | 64 | 96 | 2.0 | 7.0 | 0.00 | 0.21 | 0.08 | 66 | 1016.1 |
| 20260505200027 | 62 | 123 | 2.0 | 11.0 | 0.00 | 0.21 | 0.08 | 70 | 1016.2 |
| 20260505194519 | 62 | 130 | 4.0 | 10.0 | 0.00 | 0.21 | 0.08 | 69 | 1016.2 |
| 20260505193015 | 62 | 134 | 2.0 | 10.0 | 0.00 | 0.21 | 0.08 | 70 | 1016.1 |
| 20260505190016 | 62 | 142 | 3.0 | 13.0 | 0.00 | 0.21 | 0.08 | 69 | 1016.1 |
| 20260505184523 | 61 | 138 | 2.0 | 10.0 | 0.00 | 0.21 | 0.08 | 71 | 1016.2 |
| 20260505183015 | 60 | 130 | 2.0 | 13.0 | 0.00 | 0.21 | 0.08 | 74 | 1016.1 |
| 20260505181518 | 59 | 102 | 5.0 | 14.0 | 0.00 | 0.21 | 0.08 | 74 | 1016.0 |
| 20260505174505 | 59 | 130 | 2.0 | 12.0 | 0.00 | 0.21 | 0.08 | 77 | 1015.8 |
| 20260505173032 | 58 | 92 | 4.0 | 11.0 | 0.00 | 0.21 | 0.08 | 77 | 1015.6 |
| 20260505171518 | 58 | 101 | 3.0 | 9.0 | 0.00 | 0.21 | 0.08 | 79 | 1015.6 |
| 20260505170025 | 57 | 124 | 2.0 | 11.0 | 0.00 | 0.21 | 0.08 | 80 | 1015.7 |
| 20260505161512 | 56 | 136 | 2.0 | 9.0 | 0.00 | 0.21 | 0.08 | 85 | 1015.7 |